User: anonymous   Login
Location: Lima
(44.6384°N, 112.5920°W)
Time: 01:01:04
(UTC+00:00)
Language:

CAS-4B - Orbit

View from above orbital plane
View from above orbital plane
View from above satellite
View from above satellite

Ground track
Ground track

The orbit data is extracted from the following two-line orbital elements,

1 42759U 17034B   24108.54318559  .00026653  00000-0  10316-2 0  9992
2 42759  43.0146 208.6848 0013715 305.6299  54.3274 15.25617879378132
Epoch (UTC): 17 April 2024 13:02:11
Eccentricity: 0.0013715
inclination: 43.0146°
perigee height: 479 km
apogee height: 498 km
right ascension of ascending node: 208.6848°
argument of perigee: 305.6299°
revolutions per day: 15.25617879
mean anomaly at epoch: 54.3274°
orbit number at epoch: 37813

The dashed part of the orbit path shows where the satellite is in the earth's shadow,  

DLR